Weather History for KHGR - September, 2013

Change the Weather History Date:

Thursday, September 19, 2013

  Actual Average Record
Temperature  
Mean Temperature 63 °F -  
Max Temperature 76 °F 72 °F - (-1)
Min Temperature 49 °F 54 °F - (-1)
Degree Days  
Heating Degree Days 2    
Month to date heating degree days 36  
Growing Degree Days 12 (Base 50)    
Moisture  
Dew Point 51 °F    
Average Humidity 68    
Maximum Humidity 86    
Minimum Humidity 50    
Precipitation  
Precipitation 0.00 in - - ()
Month to date precipitation 2.33  
Year to date precipitation 21.48  
Sea Level Pressure  
Sea Level Pressure 30.17 in    
Wind  
Wind Speed 2 mph (South)    
Max Wind Speed 9 mph    
Max Gust Speed 13 mph    
Visibility 10 miles    
Events      
Averages and records for this station are not official NWS values.
T = Trace of Precipitation, MM = Missing Value Source: NWS Daily Summary

Daily Weather History Graph

Daily Weather History Graph

Search for Another Location

Airport or City:

Trip Planner

Search our weather history database for the weather conditions in past years. The results will help you decide how hot, cold, wet, or windy it might be!

Date:

Astronomy

Sep. 19, 2013 Rise Set
Actual Time 6:55 AM EDT 7:12 PM EDT
Civil Twilight 6:28 AM EDT 7:39 PM EDT
Nautical Twilight 5:57 AM EDT 8:11 PM EDT
Astronomical Twilight 5:25 AM EDT 8:43 PM EDT
Moon 7:09 PM EDT (9/19) 7:02 AM EDT (9/19)
Length of Visible Light 13h 10m
Length of Day
12h 16m
Full, 100% of the Moon is Illuminated
Sep 19
Full
Sep 26
Last Quarter
Oct 4
New
Oct 11
First Quarter
Oct 18
Full

Hourly Weather History & Observations

Time (EDT) Temp. Dew Point Humidity Pressure Visibility Wind Dir Wind Speed Gust Speed Precip Events Conditions
12:53 AM 55.0 °F 45.0 °F 69% 30.22 in 10.0 mi East 3.5 mph - N/A   Clear
1:53 AM 55.0 °F 45.0 °F 69% 30.22 in 10.0 mi Calm Calm - N/A   Clear
2:53 AM 53.1 °F 45.0 °F 74% 30.21 in 10.0 mi Calm Calm - N/A   Clear
3:53 AM 52.0 °F 45.0 °F 77% 30.20 in 10.0 mi Calm Calm - N/A   Partly Cloudy
4:53 AM 53.1 °F 45.0 °F 74% 30.20 in 10.0 mi Calm Calm - N/A   Mostly Cloudy
5:53 AM 50.0 °F 46.9 °F 89% 30.20 in 10.0 mi Calm Calm - N/A   Mostly Cloudy
6:53 AM 53.1 °F 46.0 °F 77% 30.20 in 10.0 mi East 6.9 mph - N/A   Clear
7:53 AM 50.0 °F 46.9 °F 89% 30.21 in 10.0 mi NW 3.5 mph - N/A   Mostly Cloudy
8:53 AM 57.0 °F 48.0 °F 72% 30.21 in 10.0 mi Calm Calm - N/A   Overcast
9:53 AM 57.0 °F 50.0 °F 77% 30.23 in 10.0 mi NW 5.8 mph - N/A   Mostly Cloudy
10:53 AM 62.1 °F 50.0 °F 65% 30.21 in 10.0 mi Calm Calm - N/A   Overcast
11:53 AM 66.9 °F 52.0 °F 59% 30.21 in 10.0 mi Calm Calm - N/A   Scattered Clouds
12:53 PM 68.0 °F 53.1 °F 59% 30.19 in 10.0 mi Calm Calm - N/A   Mostly Cloudy
1:53 PM 72.0 °F 54.0 °F 53% 30.16 in 10.0 mi Calm Calm - N/A   Clear
2:53 PM 73.9 °F 55.0 °F 52% 30.14 in 10.0 mi Variable 4.6 mph - N/A   Clear
3:53 PM 75.0 °F 55.0 °F 50% 30.12 in 10.0 mi West 8.1 mph - N/A   Partly Cloudy
4:53 PM 75.0 °F 55.9 °F 51% 30.11 in 10.0 mi SW 6.9 mph - N/A   Overcast
5:53 PM 73.9 °F 55.9 °F 53% 30.12 in 10.0 mi WSW 4.6 mph - N/A   Overcast
6:53 PM 73.9 °F 55.0 °F 52% 30.12 in 10.0 mi Calm Calm - N/A   Mostly Cloudy
7:53 PM 71.1 °F 55.9 °F 59% 30.12 in 10.0 mi SSE 3.5 mph - N/A   Clear
8:53 PM 68.0 °F 55.9 °F 65% 30.12 in 10.0 mi ESE 4.6 mph - N/A   Clear
9:53 PM 64.9 °F 55.9 °F 73% 30.12 in 10.0 mi SSE 4.6 mph - N/A   Clear
10:53 PM 64.0 °F 55.9 °F 75% 30.11 in 10.0 mi SE 6.9 mph - N/A   Clear
11:53 PM 63.0 °F 55.9 °F 78% 30.10 in 10.0 mi SSE 3.5 mph - N/A   Clear